Volver al catálogo

STARLINK-5939

ActivoComunicacionesVLEO
NORAD 56015·PAYLOAD·🇺🇸 United States

Lanzado Mar 24, 2023 desde Cape Canaveral Space Force Station

Loading…

Próximos Pases (próximas 24 horas)

TLE

ActualizadoSource: CelesTrak SupGP

Época: Sep 14, 2026, 20:35 UTC

1 56015C 23042AF  26257.85812500  .00053500  00000+0  19377-2 0  2577
2 56015  43.0030  56.6560 0001444 271.4157 294.5748 15.27552431    12

Sigue STARLINK-5939 en tiempo real con AllMySat

Download on the App Store